Centralia, IL

5:43 PM CDT on August 21, 2017 (GMT -0500)
Centralia Municipal

Weather History for KENL - November, 2012

Change the Weather History Date:

Saturday, November 10, 2012

  Actual Average (KSLO) Record (KSLO)
Temperature  
Mean Temperature 64 °F -  
Max Temperature 72 °F 55 °F 74 °F (1964)
Min Temperature 55 °F 35 °F 18 °F (1960)
Degree Days  
Heating Degree Days 2    
Growing Degree Days 14 (Base 50)    
Moisture  
Dew Point 48 °F    
Average Humidity 57    
Maximum Humidity 69    
Minimum Humidity 43    
Precipitation  
Precipitation 0.00 in - - ()
Sea Level Pressure  
Sea Level Pressure 30.04 in    
Wind  
Wind Speed 15 mph (South)    
Max Wind Speed 24 mph    
Max Gust Speed 30 mph    
Visibility 10 miles    
Events      
Averages and records for this station are not official NWS values.
T = Trace of Precipitation, MM = Missing Value Source: NWS Daily Summary

Daily Weather History Graph

Daily Weather History Graph

Search for Another Location

Airport or City:

Trip Planner

Search our weather history database for the weather conditions in past years. The results will help you decide how hot, cold, wet, or windy it might be!

Date:

Astronomy

Nov. 10, 2012 Rise Set
Actual Time 6:33 AM CST 4:46 PM CST
Civil Twilight 6:05 AM CST 5:15 PM CST
Nautical Twilight 5:33 AM CST 5:46 PM CST
Astronomical Twilight 5:02 AM CST 6:17 PM CST
Moon 2:40 AM CST (11/10) 2:31 PM CST (11/10)
Length of Visible Light 11h 09m
Length of Day
10h 13m
Waning Crescent, 14% of the Moon is Illuminated
Nov 10
Waning Crescent
Nov 13
New
Nov 20
First Quarter
Nov 28
Full
Dec 6
Last Quarter

Hourly Weather History & Observations

Time (CST) Temp. Dew Point Humidity Pressure Visibility Wind Dir Wind Speed Gust Speed Precip Events Conditions
12:15 AM 60.8 °F 46.6 °F 59% 30.03 in 10.0 mi SSW 16.1 mph 24.2 mph N/A   Clear
12:35 AM 60.6 °F 45.9 °F 58% 30.03 in 10.0 mi SSW 16.1 mph 24.2 mph N/A   Clear
12:55 AM 60.1 °F 45.5 °F 59% 30.03 in 10.0 mi SSW 17.3 mph 25.3 mph N/A   Clear
1:15 AM 59.9 °F 45.1 °F 58% 30.04 in 10.0 mi SSW 17.3 mph - N/A   Clear
1:35 AM 59.2 °F 45.0 °F 59% 30.04 in 10.0 mi SSW 16.1 mph 20.7 mph N/A   Clear
1:55 AM 59.0 °F 44.6 °F 59% 30.04 in 10.0 mi SSW 15.0 mph 20.7 mph N/A   Clear
2:15 AM 59.0 °F 43.9 °F 57% 30.04 in 10.0 mi SSW 16.1 mph 21.9 mph N/A   Clear
2:35 AM 58.8 °F 43.7 °F 57% 30.04 in 10.0 mi SSW 16.1 mph - N/A   Clear
2:55 AM 58.6 °F 43.7 °F 58% 30.05 in 10.0 mi SSW 12.7 mph 19.6 mph N/A   Clear
3:15 AM 58.5 °F 43.7 °F 58% 30.05 in 10.0 mi SSW 13.8 mph 19.6 mph N/A   Clear
3:35 AM 58.5 °F 43.7 °F 58% 30.05 in 10.0 mi SSW 13.8 mph - N/A   Clear
3:55 AM 58.1 °F 43.7 °F 59% 30.05 in 10.0 mi SSW 13.8 mph - N/A   Clear
4:15 AM 58.1 °F 43.9 °F 59% 30.05 in 10.0 mi South 11.5 mph - N/A   Clear
4:35 AM 57.6 °F 44.4 °F 62% 30.05 in 10.0 mi South 11.5 mph - N/A   Clear
4:55 AM 57.7 °F 44.6 °F 62% 30.05 in 10.0 mi South 13.8 mph - N/A   Clear
5:15 AM 57.6 °F 44.8 °F 62% 30.06 in 10.0 mi South 11.5 mph 18.4 mph N/A   Clear
5:35 AM 56.8 °F 44.6 °F 64% 30.05 in 10.0 mi South 11.5 mph - N/A   Clear
5:55 AM 57.2 °F 44.6 °F 63% 30.06 in 10.0 mi South 11.5 mph - N/A   Clear
6:15 AM 56.7 °F 45.1 °F 65% 30.06 in 10.0 mi South 11.5 mph - N/A   Clear
6:35 AM 56.8 °F 45.7 °F 66% 30.06 in 10.0 mi South 11.5 mph - N/A   Clear
6:55 AM 55.9 °F 45.7 °F 68% 30.07 in 10.0 mi SSE 9.2 mph - N/A   Clear
7:15 AM 56.5 °F 46.4 °F 69% 30.07 in 10.0 mi South 11.5 mph - N/A   Clear
7:35 AM 57.6 °F 47.3 °F 69% 30.07 in 10.0 mi South 12.7 mph 18.4 mph N/A   Clear
7:55 AM 58.6 °F 48.0 °F 68% 30.08 in 10.0 mi South 11.5 mph - N/A   Clear
8:15 AM 60.3 °F 48.7 °F 66% 30.08 in 10.0 mi South 13.8 mph 17.3 mph N/A   Clear
8:35 AM 61.7 °F 49.6 °F 65% 30.07 in 10.0 mi South 18.4 mph 23.0 mph N/A   Clear
8:55 AM 61.7 °F 50.2 °F 66% 30.07 in 10.0 mi South 15.0 mph 20.7 mph N/A   Clear
9:15 AM 64.4 °F 51.8 °F 64% 30.06 in 10.0 mi South 16.1 mph - N/A   Clear
9:35 AM 65.7 °F 51.1 °F 59% 30.06 in 10.0 mi South 17.3 mph 24.2 mph N/A   Clear
9:55 AM 66.2 °F 50.9 °F 58% 30.06 in 10.0 mi South 17.3 mph 25.3 mph N/A   Clear
10:15 AM 66.2 °F 50.5 °F 57% 30.05 in 10.0 mi South 18.4 mph 25.3 mph N/A   Clear
10:35 AM 68.0 °F 51.4 °F 55% 30.05 in 10.0 mi South 16.1 mph 20.7 mph N/A   Clear
10:55 AM 69.1 °F 50.2 °F 51% 30.04 in 10.0 mi South 18.4 mph 24.2 mph N/A   Clear
11:15 AM 70.0 °F 49.5 °F 48% 30.03 in 10.0 mi South 19.6 mph 26.5 mph N/A   Clear
11:35 AM 71.1 °F 49.6 °F 47% 30.03 in 10.0 mi South 15.0 mph 26.5 mph N/A   Clear
11:55 AM 71.8 °F 48.0 °F 43% 30.02 in 10.0 mi SSW 20.7 mph 28.8 mph N/A   Clear
12:15 PM 71.4 °F 48.2 °F 44% 30.02 in 10.0 mi South 19.6 mph 28.8 mph N/A   Clear
12:35 PM 72.0 °F 48.9 °F 44% 30.01 in 10.0 mi South 17.3 mph 28.8 mph N/A   Clear
12:55 PM 72.0 °F 49.3 °F 45% 30.01 in 10.0 mi South 20.7 mph 27.6 mph N/A   Clear
1:15 PM 72.0 °F 49.5 °F 45% 30.00 in 10.0 mi South 24.2 mph 27.6 mph N/A   Clear
1:35 PM 71.8 °F 50.4 °F 47% 30.00 in 10.0 mi South 20.7 mph 27.6 mph N/A   Clear
1:55 PM 72.1 °F 51.1 °F 47% 30.00 in 10.0 mi South 19.6 mph 29.9 mph N/A   Clear
2:15 PM 72.5 °F 51.4 °F 47% 30.00 in 10.0 mi South 20.7 mph 28.8 mph N/A   Clear
2:35 PM 71.8 °F 51.8 °F 49% 29.99 in 10.0 mi South 18.4 mph 26.5 mph N/A   Clear
2:55 PM 71.8 °F 50.4 °F 47% 29.99 in 10.0 mi South 20.7 mph 28.8 mph N/A   Clear
3:15 PM 71.6 °F 50.5 °F 47% 30.00 in 10.0 mi South 18.4 mph 25.3 mph N/A   Clear
3:35 PM 71.2 °F 50.2 °F 47% 30.00 in 10.0 mi South 20.7 mph 27.6 mph N/A   Clear
3:55 PM 70.5 °F 50.5 °F 49% 30.00 in 10.0 mi South 21.9 mph 29.9 mph N/A   Clear
4:15 PM 69.1 °F 51.4 °F 53% 30.00 in 10.0 mi South 10.4 mph - N/A   Clear
4:35 PM 68.0 °F 53.6 °F 60% 30.01 in 10.0 mi South 12.7 mph - N/A   Clear
4:55 PM 66.6 °F 52.5 °F 61% 30.02 in 10.0 mi SSE 13.8 mph - N/A   Clear
5:15 PM 65.8 °F 52.3 °F 62% 30.03 in 10.0 mi SSE 12.7 mph - N/A   Clear
5:35 PM 66.4 °F 51.4 °F 59% 30.03 in 10.0 mi SSE 13.8 mph 18.4 mph N/A   Clear
5:55 PM 65.7 °F 51.1 °F 59% 30.03 in 10.0 mi SSE 11.5 mph - N/A   Clear
6:15 PM 64.9 °F 51.1 °F 61% 30.04 in 10.0 mi SSE 10.4 mph - N/A   Clear
6:35 PM 64.8 °F 50.9 °F 61% 30.05 in 10.0 mi SSE 10.4 mph - N/A   Clear
6:55 PM 65.1 °F 49.6 °F 57% 30.05 in 10.0 mi SSE 12.7 mph - N/A   Clear
7:15 PM 63.9 °F 49.6 °F 60% 30.05 in 10.0 mi SSE 10.4 mph - N/A   Clear
7:35 PM 63.9 °F 49.3 °F 59% 30.06 in 10.0 mi SSE 11.5 mph - N/A   Clear
7:55 PM 63.7 °F 49.1 °F 59% 30.05 in 10.0 mi SSE 13.8 mph - N/A   Clear
8:15 PM 63.7 °F 48.4 °F 57% 30.05 in 10.0 mi SSE 13.8 mph 20.7 mph N/A   Clear
8:35 PM 64.0 °F 47.8 °F 56% 30.04 in 10.0 mi SSE 15.0 mph 21.9 mph N/A   Clear
8:55 PM 63.9 °F 47.5 °F 55% 30.04 in 10.0 mi SSE 16.1 mph 21.9 mph N/A   Clear
9:15 PM 63.9 °F 46.9 °F 54% 30.03 in 10.0 mi SSE 15.0 mph 25.3 mph N/A   Clear
9:35 PM 63.5 °F 46.4 °F 54% 30.03 in 10.0 mi SSE 16.1 mph 21.9 mph N/A   Clear
9:55 PM 62.6 °F 46.4 °F 55% 30.02 in 10.0 mi SSE 17.3 mph 20.7 mph N/A   Clear
10:15 PM 62.2 °F 45.9 °F 55% 30.03 in 10.0 mi South 16.1 mph 24.2 mph N/A   Clear
10:35 PM 61.9 °F 45.9 °F 56% 30.03 in 10.0 mi South 16.1 mph 23.0 mph N/A   Clear
10:55 PM 61.7 °F 46.4 °F 57% 30.02 in 10.0 mi South 16.1 mph 23.0 mph N/A   Clear
11:15 PM 61.9 °F 46.4 °F 57% 30.02 in 10.0 mi South 16.1 mph 21.9 mph N/A   Clear
11:35 PM 61.7 °F 46.8 °F 58% 30.02 in 10.0 mi SSE 15.0 mph 23.0 mph N/A   Clear
11:55 PM 61.5 °F 47.3 °F 60% 30.01 in 10.0 mi SSE 15.0 mph 20.7 mph N/A   Clear